SCOUT X-1 DEB, 3927

Orbit data source: Space-Track

SCOUT X-1 DEB, 3927 is space debris in LEO originally from a launch on Thu, 16 Feb 1961 UTC launched from the Wallops Island (WLPIS). Debris objects in space refer to the collection of defunct objects orbiting the Earth. Examples of debris include non-operational satellites, rocket bodies, and fragments generated from explosions, collisions, or faulty payload assembly.

Loading next visibility...
Identifier
3927, 1961-004F
Orbit
LEO
Country
Flag of USUS
Related business
Manufacturer
Unknown
Mission
Spacecraft
Bus & Motor
Unknown
Mass
Unknown
Launch date (UTC)
1961-02-16 (65 years ago)
Launch vehicle
Unknown
Launch site
Wallops Island (WLPIS)
Object type
Payload
Rocket body
Debris
Shape & HBR
Unknown shape, 0.1 m
Radar Cross Section
Small (<0.1 m²)

Expand to show TLE details & history
Last TLE update: 1 day ago

TLE from 1 day ago
0 SCOUT X-1 DEB
1 03927U 61004F   25349.38813861  .00067989  00000-0  34674-2 0  9998
2 03927  38.9869   5.7697 0120378 222.9796 136.1529 15.09612050102973
Epoch: 2025-12-15T09:18Z
TLE epoch observation values (Epoch: 2025-12-15T09:18:55.175Z)
Latitude
-0.00002°
Longitude
141.75236°
Altitude
597.222 km
Speed
7.53 km/s
True Right ascension
00h 23m 04s
True Declination
0° 00' 00"
Sunlit
Object was in daylight at epoch
Visualization orbit readout
Latitude
Unknown
Longitude
Unknown
Altitude
Unknown
Speed
Unknown
Apparent Right ascension
Unknown
Apparent Declination
Unknown
Sunlit
N/A
Visualization observer readout
Local Sidereal Time
13:11:22
Azimuth
Unknown
Elevation
Unknown
Doppler factor
Unknown
Orbital elements
Apogee altitude
623.256 km
Perigee altitude
456.699 km
Semi-major axis
6,918.114 km
Eccentricity
0.01204
Inclination
38.9869°
RAAN
5.7697°
Arg. of periapsis
222.9796°
True anomaly
137.09818°
Mean anomaly
136.1529°
Eccentric anomaly
136.62656°
Mean motion
3.77191 °/min
Orbital period
95.44 mins
BSTAR
0.0034674
Loading maneuver chart data...
Computing Atmospheric mass density...
Loading historical data...
Loading historical data...
Loading historical data...
Loading historical data...
Loading historical data...
Loading historical data...
Loading historical data...

Documentation

Showing up to 5 results
|